www.pogodaiklimat.ru

Погода и климат >> Архив погоды >> Австрия >> Брегенц


ПОГОДА в Брегенце

  • Прогноз погоды в Брегенце
  • Монитор погоды в Брегенце

АРХИВ ПОГОДЫ в Брегенце

Время (UTC), дата Ветер
(напр.,м/с)
 
Видим.   Явления Облачность Т
(С)
Тd
(С)
f
(%)
Тe
(С)
Тes
(С)
Комфортность P
(гПа)
Po
(гПа)
Тmin
(С)
Tmax
(С)
R
(мм)
R24
(мм)
S
(см)
19 10.08 Ю 2 н/о н/о +17.9 +14.5 80 +18 +18 1019.0 968.6
20 10.08 Ю 2 н/о н/о +17.2 +14.2 83 +18 +18 1019.6 969.0
21 10.08 В 2 н/о н/о +16.8 +13.8 82 +17 +17 1019.6 969.0
22 10.08 Ю 1 н/о н/о +17.2 +14.3 83 +18 +18 1019.7 969.1
23 10.08 ЮВ 1 н/о н/о +17.3 +14.3 83 +18 +18 1019.5 969.0
00 11.08 Ю 2 н/о н/о +17.3 +14.3 83 +18 +18 1019.3 968.8
01 11.08 штиль 0 н/о н/о +16.8 +14.1 84 +17 +17 1019.3 968.7
02 11.08 СВ 1 н/о н/о +15.7 +13.5 87 +16 +16 1019.6 968.8
03 11.08 Ю 1 н/о н/о +15.0 +13.1 88 +15 +15 1019.3 968.4
04 11.08 Ю 1 н/о н/о +14.6 +13.3 92 +15 +15 1019.1 968.1
05 11.08 штиль 0 35 км 1/0
[Ac trans]
+14.6 +13.1 91 +14 +15 1018.7 967.7 +14.3 +14.7
06 11.08 штиль 0 35 км 1/0
[Ac trans]
+15.2 +13.9 92 +15 +17 1018.4 967.6 +14.3 +18.4
07 11.08 С 1 н/о н/о +19.0 +14.8 77 +21 +21 комфорт 1017.4 967.3
08 11.08 СЗ 1 н/о н/о +21.4 +13.4 60 +24 +24 комфорт 1016.1 966.4
09 11.08 СЗ 2 30 км 1/0
[Ac lent Ci fib]
+21.9 +14.5 63 +25 +36 комфорт 1015.4 965.8
10 11.08 СЗ 1 н/о н/о +23.1 +13.9 56 +27 +27 душно 1014.4 965.1
11 11.08 СЗ 2 н/о н/о +22.9 +15.9 65 +27 +27 душно 1013.4 964.1
12 11.08 СЗ 2 30 км 1/1 1350 м
[Cu med, cong Ac lent]
+23.8 +14.8 57 +27 +40 жарко 1012.0 962.9
13 11.08 СЗ 2 н/о н/о +24.6 +15.9 58 +28 +28 душно 1010.7 961.8
14 11.08 СЗ 2 н/о н/о +25.6 +16.0 55 +29 +29 душно 1009.5 960.8
15 11.08 СЗ 2 н/о н/о +26.2 +16.5 55 +30 +30 душно 1008.1 959.6
16 11.08 СЗ 1 н/о н/о +27.4 +17.1 53 +31 +31 душно 1006.2 958.0
17 11.08 С 1 н/о н/о +26.8 +18.0 59 +31 +31 душно 1008.2 959.8
18 11.08 З 3 н/о н/о +26.4 +17.6 58 +31 +31 душно 1011.0 962.4 +15.1 +28.1
19 11.08 З 6
{15}
н/о ливневой дождь н/о +20.8 +17.9 83 +25 +25 комфорт 1014.7 965.1 0.4
20 11.08 В 2
{15}
н/о н/о +18.7 +17.7 94 +20 +20 1016.5 966.4 6
21 11.08 Ю 2
{15}
н/о в посл. час осадки {ливн. осадки} н/о +18.8 +17.6 93 +21 +21 комфорт 1016.5 966.4 9
22 11.08 В 1 н/о в посл. час осадки н/о +18.5 +17.6 94 +20 +20 1016.5 966.4 0.1
23 11.08 СЗ 1 н/о н/о +18.8 +17.4 92 +21 +21 комфорт 1016.7 966.6
00 12.08 СЗ 2
{15}
н/о {ливн. осадки} н/о +18.6 +16.4 87 +20 +20 1016.9 966.8 9
01 12.08 СЗ 2 н/о н/о +18.1 +16.3 89 +19 +19 1016.5 966.3
02 12.08 З 3 н/о н/о +18.1 +15.8 86 +18 +18 1016.4 966.2
03 12.08 СЗ 2 н/о осадки н/о +17.7 +16.1 90 +18 +18 1017.1 966.8 0.2
04 12.08 СВ 1 н/о ливневой дождь н/о +17.1 +16.0 93 +18 +18 1016.9 966.5 0.4
05 12.08 ЮВ 2 2000 м слаб. дождь {морось} 10/4 240 м
[Frnb As op]
+16.8 +16.0 95 +17 +17 1016.6 966.2 +16.7 +17.2 0.1
06 12.08 В 1 3000 м слаб. дождь {гроза} 10/4 420 м
[Frnb As op]
+16.8 +16.0 95 +18 +18 1016.3 965.9 +16.7 +26.3 10
07 12.08 ЮЗ 1 н/о осадки н/о +17.2 +16.2 94 +18 +18 1016.6 966.2 1
08 12.08 З 1 н/о н/о +17.0 +16.3 96 +18 +18 1016.9 966.5 6
09 12.08 Ю 2 400 м ливневой дождь, в посл. час гроза 10/4 150 м
[Frnb As op]
+16.9 +16.3 96 +17 +19 1016.3 965.9 13
10 12.08 СЗ 3 н/о н/о +16.3 +15.6 96 +16 +16 1017.2 966.6 8
11 12.08 СЗ 2 н/о осадки н/о +15.9 +15.1 95 +16 +16 1017.6 966.9 4
12 12.08 Ю 3 500 м дождь {гроза, ливн. осадки} 10/4 180 м
[Frnb As op]
+15.9 +15.3 96 +15 +17 1017.8 967.1 30
13 12.08 ЮВ 1 н/о в посл. час осадки н/о +17.3 +16.2 93 +18 +18 1016.3 966.0 2
14 12.08 СЗ 3 н/о н/о +19.5 +16.2 81 +22 +22 комфорт 1014.5 964.6
15 12.08 З 2 н/о {осадки} н/о +18.6 +15.1 80 +20 +20 1015.2 965.1 2
16 12.08 В 2 н/о осадки н/о +17.0 +16.2 95 +17 +17 1015.8 965.4 4
17 12.08 С 1 н/о ливневой дождь н/о +17.3 +16.1 93 +18 +18 1015.8 965.5 0.3
18 12.08 ЮВ 2 н/о осадки {ливн. осадки} н/о +16.8 +16.1 96 +17 +17 1016.3 965.9 +15.6 +19.8 36
19 12.08 ЮВ 2 н/о осадки н/о +16.8 +15.5 92 +17 +17 1016.9 966.4 0.6
20 12.08 ЮВ 3 н/о осадки н/о +16.6 +15.0 90 +16 +16 1018.3 967.7 1
21 12.08 ЮВ 2 н/о ливневой дождь {осадки} н/о +15.6 +14.4 93 +15 +15 1019.3 968.5 3
22 12.08 ЮВ 2 н/о в посл. час осадки н/о +15.4 +14.2 93 +15 +15 1019.5 968.6 0.1
23 12.08 Ю 3 н/о н/о +15.4 +13.9 91 +15 +15 1019.7 968.8
00 13.08 ЮВ 4 н/о {ливн. осадки} н/о +15.7 +13.6 87 +15 +15 1019.5 968.7 3
01 13.08 ЮВ 5 н/о н/о +15.5 +12.0 80 +14 +14 1019.4 968.5 0.0
02 13.08 ЮВ 5 н/о н/о +15.2 +12.3 83 +14 +14 1019.1 968.2 0.0
03 13.08 ЮВ 4 н/о н/о +14.6 +12.1 85 +13 +13 1019.1 968.1 0.0
04 13.08 ЮВ 4 н/о н/о +14.5 +11.9 84 +13 +13 1019.2 968.2
05 13.08 ЮВ 4 15 км 8/5 1500 м
[Sc Ac cast Cc]
+14.8 +11.6 81 +14 +14 1019.6 968.6 +14.4 +14.9
06 13.08 ЮВ 3 20 км {ливн. осадки, дождь} 8/5 1500 м
[Sc Ac cast]
+15.5 +11.7 78 +15 +15 1019.7 968.8 +14.4 +16.9 3
07 13.08 Ю 2 н/о н/о +16.5 +11.9 74 +17 +17 1019.9 969.2
08 13.08 Ю 2 н/о н/о +18.0 +10.9 63 +19 +19 1019.8 969.3
09 13.08 СЗ 2 20 км 9/6 900 м
[Sc Ac As]
+17.9 +12.1 69 +18 +21 1020.0 969.5
10 13.08 СЗ 2 н/о н/о +18.8 +11.4 62 +20 +20 1019.3 969.0
11 13.08 З 2 н/о н/о +18.7 +11.8 64 +20 +20 1019.3 969.0 0.0
12 13.08 З 2 15 км {морось} 10/8 900 м
[Sc Ac As]
+18.2 +11.0 63 +19 +20 1019.2 968.8 0.0
13 13.08 З 2 н/о н/о +18.8 +7.8 49 +20 +20 1018.4 968.1
14 13.08 СЗ 2 н/о н/о +18.8 +9.4 54 +20 +20 1018.1 967.8
15 13.08 штиль 0 н/о н/о +19.0 +8.5 51 +20 +20 1017.9 967.6
16 13.08 В 1 н/о н/о +18.5 +12.4 68 +20 +20 1018.0 967.7
17 13.08 ЮВ 2 н/о н/о +18.1 +11.8 67 +19 +19 1017.9 967.5
18 13.08 В 2 н/о н/о +17.5 +11.9 70 +18 +18 1018.1 967.6 +15.4 +19.5 0.0
19 13.08 В 1 н/о н/о +16.0 +12.1 78 +17 +17 1018.6 967.8
20 13.08 ЮВ 2 н/о н/о +16.3 +11.2 72 +16 +16 1019.1 968.4
21 13.08 ЮВ 2 н/о н/о +16.5 +12.1 75 +17 +17 1019.4 968.7
22 13.08 Ю 1 н/о н/о +15.3 +12.5 83 +16 +16 1019.8 968.9
23 13.08 Ю 1 н/о н/о +15.0 +12.5 85 +16 +16 1020.1 969.1
00 14.08 ЮВ 1 н/о н/о +14.0 +12.5 91 +14 +14 1020.4 969.2
01 14.08 В 1 н/о н/о +12.9 +11.9 94 +13 +13 1020.4 969.0
02 14.08 ЮВ 1 н/о н/о +12.7 +11.9 95 +13 +13 1020.4 969.0
03 14.08 ЮВ 1 н/о н/о +12.1 +11.5 96 +12 +12 1020.5 969.0
04 14.08 Ю 1 н/о н/о +12.1 +11.1 94 +12 +12 1020.4 968.9
05 14.08 В 1 18 км 5/1 750 м
[St Ac lent Cc]
+12.1 +11.3 95 +12 +12 1020.5 969.0 +12.0 +12.3
06 14.08 В 1 25 км 3/1 1350 м
[Cu med, cong Ac lent Ci fib]
+12.7 +11.7 94 +13 +14 1020.4 969.0 +12.0 +17.5
07 14.08 штиль 0 н/о н/о +14.4 +12.2 87 +14 +14 1020.7 969.6
08 14.08 С 2 н/о н/о +16.5 +12.6 78 +17 +17 1020.3 969.6
09 14.08 СЗ 1 30 км 4/3 1200 м
[Cu med, cong Ac trans]
+18.4 +12.6 69 +20 +28 1019.9 969.5
10 14.08 З 1 н/о н/о +18.4 +11.2 63 +20 +20 1019.6 969.2
11 14.08 СЗ 2 н/о н/о +19.5 +6.7 43 +21 +21 комфорт 1019.3 969.0
12 14.08 СЗ 4 30 км 4/4 1350 м
[Cu med, cong Ac cuf]
+19.7 +7.1 44 +21 +27 комфорт 1018.9 968.7
13 14.08 СЗ 3 н/о н/о +20.9 +6.2 38 +22 +22 комфорт 1018.1 968.1
14 14.08 СЗ 2 н/о н/о +21.2 +6.4 38 +22 +22 комфорт 1017.7 967.8
15 14.08 СЗ 2 н/о н/о +21.5 +4.1 32 +22 +22 комфорт 1017.4 967.5
16 14.08 СЗ 2 н/о н/о +21.8 +5.5 35 +22 +22 комфорт 1016.8 967.0
17 14.08 СЗ 1 н/о н/о +22.2 +5.5 34 +23 +23 комфорт 1016.4 966.7
18 14.08 В 1 н/о н/о +18.9 +11.4 62 +21 +21 комфорт 1016.8 966.6 +12.7 +22.7
19 14.08 В 2 н/о н/о +16.1 +10.6 70 +16 +16 1017.4 966.7
20 14.08 В 1 н/о н/о +14.4 +10.0 75 +15 +15 1017.8 966.8
21 14.08 ЮВ 1 н/о н/о +13.8 +10.1 78 +14 +14 1017.8 966.7
22 14.08 Ю 1 н/о н/о +13.7 +10.2 79 +14 +14 1017.9 966.8
23 14.08 ЮВ 1 н/о н/о +13.1 +10.0 81 +13 +13 1018.0 966.7
00 15.08 Ю 1 н/о н/о +12.7 +9.7 82 +13 +13 1017.7 966.4
01 15.08 ЮВ 1 н/о н/о +12.3 +9.4 82 +12 +12 1017.4 966.0
02 15.08 ЮВ 2 н/о н/о +12.1 +9.4 84 +11 +11 1017.6 966.2
03 15.08 ЮВ 5 н/о н/о +16.3 +8.4 59 +15 +15 1015.8 965.2
04 15.08 ЮВ 6 н/о н/о +15.9 +8.0 59 +15 +15 1015.8 965.1
05 15.08 ЮВ 4 н/о н/о +15.0 +8.2 64 +14 +14 1016.2 965.3
06 15.08 ЮВ 4 н/о н/о +15.1 +8.4 64 +14 +15 1016.2 965.4 +12.0 +18.8
07 15.08 Ю 4 н/о н/о +16.1 +9.8 66 +15 +15 1016.2 965.5
08 15.08 В 2 н/о н/о +16.4 +9.5 64 +17 +17 1016.4 965.8 0.0
09 15.08 ЮВ 1 25 км в посл. час ливневой дождь 8/3 1350 м
[Sc Ac lent Ci fib]
+17.5 +9.9 61 +19 +24 1015.9 965.5 0.0
10 15.08 Ю 2 н/о н/о +19.9 +11.5 58 +22 +22 комфорт 1015.1 965.2
11 15.08 СЗ 1 н/о н/о +20.7 +11.6 56 +24 +24 комфорт 1015.5 965.7 0.0
12 15.08 С 1 н/о слаб. ливневой дождь н/о +17.8 +14.3 80 +19 +25 1016.1 965.8 0.3
13 15.08 СЗ 2 н/о н/о +20.4 +12.9 62 +23 +23 комфорт 1015.2 965.4
14 15.08 ЮЗ 2 н/о осадки н/о +19.2 +13.3 69 +21 +21 комфорт 1016.3 966.2 0.6
15 15.08 В 3 н/о в посл. час осадки н/о +17.2 +15.6 90 +17 +17 1016.3 965.9 4
16 15.08 ЮВ 2 н/о н/о +19.6 +15.1 75 +22 +22 комфорт 1015.4 965.5
17 15.08 ЮВ 4 н/о н/о +20.5 +14.8 70 +23 +23 комфорт 1015.2 965.4
18 15.08 СЗ 3 н/о осадки н/о +17.8 +14.9 83 +18 +18 1016.7 966.4 +14.6 +22.0 7
19 15.08 ЮВ 2 н/о н/о +15.7 +14.6 93 +16 +16 1018.1 967.4
20 15.08 В 2 н/о н/о +15.5 +14.7 95 +15 +15 1018.9 968.1
21 15.08 ЮВ 2 н/о н/о +15.4 +14.6 95 +15 +15 1019.6 968.7
22 15.08 ЮВ 1 н/о н/о +15.4 +14.2 93 +16 +16 1020.0 969.1
23 15.08 ЮВ 2 н/о н/о +15.3 +14.1 93 +15 +15 1020.1 969.2
00 16.08 Ю 3 н/о н/о +15.7 +13.5 87 +15 +15 1020.2 969.3
01 16.08 ЮВ 3 н/о н/о +15.8 +13.1 84 +15 +15 1020.4 969.5
02 16.08 ЮВ 1 н/о н/о +15.2 +13.8 91 +16 +16 1020.5 969.5
03 16.08 ЮВ 5 н/о н/о +15.5 +13.7 89 +14 +14 1020.5 969.6
04 16.08 ЮВ 4 н/о осадки н/о +15.1 +13.4 90 +14 +14 1020.9 969.9 0.1
05 16.08 ЮВ 4 н/о в посл. час осадки н/о +14.7 +12.8 88 +13 +13 1020.7 969.6 0.7
06 16.08 Ю 1 25 км в посл. час ливневой дождь 4/4 900 м
[Cu hum Ac lent Ci fib]
+14.5 +13.5 94 +15 +16 1020.6 969.5 +14.4 +17.6 0.9
07 16.08 ЮВ 3 н/о н/о +16.2 +13.9 86 +16 +16 1020.5 969.7
08 16.08 Ю 3 н/о н/о +17.8 +13.4 75 +18 +18 1020.1 969.6
09 16.08 ЮВ 1 30 км 3/3 1050 м
[Cu hum Ac lent Ci fib]
+19.0 +12.3 65 +21 +30 комфорт 1019.8 969.5
10 16.08 СЗ 2 н/о н/о +19.9 +11.5 58 +22 +22 комфорт 1019.1 969.0
11 16.08 СЗ 2 н/о н/о +20.8 +11.7 56 +24 +24 комфорт 1018.7 968.7
12 16.08 СЗ 2 30 км 4/3 1200 м
[Cu Sc Ac trans Ci fib]
+21.4 +9.9 48 +23 +32 комфорт 1017.7 967.9
13 16.08 З 3 н/о н/о +22.2 +9.1 43 +24 +24 комфорт 1017.0 967.3
14 16.08 СЗ 2 н/о н/о +22.5 +8.8 42 +24 +24 комфорт 1016.2 966.6
15 16.08 З 2 н/о н/о +23.4 +9.3 41 +25 +25 комфорт 1015.3 965.9
16 16.08 З 2 н/о н/о +23.1 +11.3 47 +25 +25 комфорт 1015.3 965.9
17 16.08 З 2 н/о н/о +23.0 +9.9 43 +25 +25 комфорт 1015.1 965.6
18 16.08 СВ 1 н/о н/о +20.2 +13.2 64 +23 +23 комфорт 1015.3 965.4 +14.4 +23.8 0.0
19 16.08 В 2 н/о н/о +17.3 +12.8 75 +18 +18 1015.8 965.4
20 16.08 ЮВ 1 н/о н/о +15.9 +12.1 78 +17 +17 1016.1 965.5
21 16.08 Ю 2 н/о н/о +16.5 +12.4 77 +17 +17 1016.1 965.6
22 16.08 ЮВ 2 н/о н/о +15.5 +12.4 82 +15 +15 1016.4 965.7
23 16.08 ЮВ 4 н/о н/о +17.9 +11.1 64 +18 +18 1015.6 965.3
00 17.08 ЮВ 4 н/о н/о +16.0 +11.4 74 +15 +15 1015.8 965.2
01 17.08 ЮВ 4 н/о н/о +17.5 +10.9 65 +17 +17 1015.3 964.9
02 17.08 ЮВ 6 н/о н/о +17.1 +10.5 65 +16 +16 1015.2 964.8
03 17.08 ЮВ 6 н/о н/о +17.8 +10.0 60 +17 +17 1014.6 964.3
04 17.08 ЮВ 6 н/о н/о +17.9 +9.9 59 +17 +17 1014.9 964.6
05 17.08 ЮВ 6 30 км 9/0
[Ac As Cc]
+18.7 +9.2 54 +19 +19 1014.6 964.5 +18.0 +19.0
06 17.08 ЮВ 4 35 км 9/0
[Ac As Cc]
+18.4 +9.7 57 +19 +19 1014.9 964.7 +14.7 +20.2
07 17.08 ЮВ 5 н/о н/о +18.6 +10.2 58 +19 +19 1015.3 965.1
08 17.08 ЮВ 5 н/о н/о +19.8 +11.9 60 +21 +21 комфорт 1014.6 964.7
09 17.08 ЮВ 5 40 км 10/0
[Ac As]
+21.2 +13.1 60 +24 +25 комфорт 1014.5 964.8
10 17.08 ЮВ 3 н/о н/о +22.3 +11.4 50 +24 +24 комфорт 1014.6 965.1
11 17.08 В 1 н/о н/о +22.2 +14.1 60 +25 +25 комфорт 1014.6 965.1
12 17.08 С 1 35 км 10/0
[Ac As]
+24.2 +11.8 46 +26 +31 жарко 1013.8 964.6
13 17.08 СЗ 1 н/о н/о +23.9 +10.4 43 +25 +25 комфорт 1013.0 963.8
14 17.08 В 1 н/о н/о +22.1 +15.9 68 +26 +26 душно 1012.9 963.5
15 17.08 В 1 н/о н/о +22.4 +16.2 68 +27 +27 душно 1012.4 963.1
16 17.08 В 1 н/о н/о +20.8 +15.6 72 +25 +25 комфорт 1013.0 963.4 0.0
17 17.08 В 1 н/о н/о +19.7 +16.1 80 +23 +23 комфорт 1013.0 963.2 0.0
18 17.08 ЮВ 1 н/о н/о +19.5 +14.7 74 +22 +22 комфорт 1012.8 963.0 +17.8 +24.5 0.0
19 17.08 Ю 1 н/о н/о +19.3 +15.1 77 +22 +22 комфорт 1013.0 963.1

 

Местоположение метеостанции Брегенц (Австрия): широта 47.50 долгота 9.75 высота над уровнем моря 439 м.

В архиве по умолчанию представлена погода в Брегенце за последнюю неделю. Архивные данные за месяц целиком и за предыдущие месяцы, начиная с января 2011 года, Вы можете получить, выбрав интересующий диапазон дат из раскрывающегося списка и нажав кнопку "Ввод!".


*Определитесь, кто Вы:
робот инопланетянин человек

Внимание! Время в таблицах - всемирное. Для получения местного времени необходимо прибавить поправку, которая равна 1 ч.

Смотрите также архив погоды в соседних городах и на ближайших метеорологических станциях:

Погода в Дорнбирне (Австрия) (8 км)
Погода в Альбершвенде (Австрия) (9 км)
Погода в Санкт-Галлен-Альтенрайне (Швейцария) (14 км)
Погода в Фельдкирхе (Австрия) (27 км)
Погода в Санкт-Галлене (Швейцария) (27 км)
Погода в Гуттингене (Швейцария) (37 км)
Погода в Бишофсцелле (Швейцария) (39 км)
Погода в Херлацхофене (Германия) (39 км)
Погода на Зентисе (Швейцария) (41 км)
Погода в Оберстдорфе (Германия) (41 км)

Пояснения к столбцам:

Ветер - указаны скорость ветра в м/с - средняя за 10 мин, порывы в срок и между сроками (в фигурных скобках) и направление, откуда дует ветер: С - северный, СВ - северо-восточный, В - восточный, ЮВ - юго-восточный, Ю - южный, ЮЗ - юго-западный, З - западный, СЗ - северо-западный.
Видимость - горизонтальная дальность видимости в метрах или километрах. При видимости от 1 до 10 км при отсутствии осадков обычно наблюдается дымка, при ухудшении видимости до 1 км и менее - туман. В сухую погоду видимость может ухудшаться дымом, пылью или мглою.
Явления - указаны атмосферные явления, наблюдавшиеся в срок или в последний час перед сроком; фигурными скобками обозначены явления, наблюдавшиеся между сроками (за 1-3 часа до срока); квадратными скобками обозначены град или гололедные отложения с указанием их диаметра в мм.
Облачность - указаны через наклонную черту общая и нижняя облачность в баллах и высота нижней границы облаков в метрах; квадратными скобками обозначены формы облаков: Ci - перистые, Cs - перисто-слоистые, Cc - перисто-кучевые, Ac - высококучевые, As - высокослоистые, Sc - слоисто-кучевые, Ns - слоисто-дождевые, Cu - кучевые, Cb - кучево-дождевые. Подробнее классификацию облаков см. в Атласе облаков (PDF).
T - Температура воздуха - температура, измеренная на высоте 2 м над землей.
Td - Температура точки росы - температура, при понижении до которой содержащийся в воздухе водяной пар достигнет насыщения.
f - Относительная влажность воздуха - влажноcть воздуха, измеренная на высоте 2 м над землей.
Te - Эффективная температура - температура, которую ощущает одетый по сезону человек в тени. Характеристика душности погоды. При расчете учитывается влияние влажности воздуха и скорости ветра на теплоощущения человека.
Tes - Эффективная температура на солнце - температура, которую ощущает человек, с поправкой на солнечный нагрев. Характеристика знойности погоды. Зависит от высоты солнца над горизонтом, облачности и скорости ветра. Ночью, в пасмурную погоду, а также при ветре 12 м/с и более поправка равна нулю.
P - Атмосферное давление - приведенное к уровню моря атмосферное давление.
Po - Атмосферное давление - измеренное на уровне метеостанции атмосферное давление.
Tmin - Минимальная температура - минимум температуры воздуха на высоте 2 м над землей.
Tmax - Максимальная температура - максимум температуры воздуха на высоте 2 м над землей.
R - Количество осадков - Количество выпавших осадков за период времени, мм. При наведении курсора мыши на число - период времени, за который выпало указанное количество осадков.
R24 - Количество осадков - Количество выпавших осадков за 24 часа, мм.
S - Снежный покров - Высота снежного покрова, см. При наведении курсора мыши на число - состояние снежного покрова и степень покрытия местности в баллах.